Weather History for Orange, MA

Change the Weather History Date:

Monday, January 28, 2013

  Actual Average Record
Temperature  
Mean Temperature 15 °F -  
Max Temperature 25 °F 29 °F 50 °F (2002)
Min Temperature 5 °F 9 °F -23 °F (2003)
Degree Days  
Heating Degree Days 50    
Moisture  
Dew Point 16 °F    
Average Humidity 84    
Maximum Humidity 96    
Minimum Humidity 58    
Precipitation  
Precipitation 0.18 in - - ()
Sea Level Pressure  
Sea Level Pressure 30.19 in    
Wind  
Wind Speed 1 mph (South)    
Max Wind Speed 7 mph    
Max Gust Speed -    
Visibility 4 miles    
Events Fog , Rain , Snow    
Averages and records for this station are not official NWS values.
T = Trace of Precipitation, MM = Missing Value Source: NWS Daily Summary

Daily Weather History Graph

Daily Weather History Graph

Search for Another Location

Airport:

Trip Planner

Search our weather history database for the weather conditions in past years. The results will help you decide how hot, cold, wet, or windy it might be!

Date:

Astronomy

Jan. 28, 2013 Rise Set
Actual Time 7:06 AM EST 4:57 PM EST
Civil Twilight 6:36 AM EST 5:28 PM EST
Nautical Twilight 6:02 AM EST 6:02 PM EST
Astronomical Twilight 5:29 AM EST 6:35 PM EST
Moon 6:53 PM EST (1/28) 7:28 AM EST (1/28)
Length of Visible Light 10h 51m
Length of Day
9h 50m
Full, 98% of the Moon is Illuminated
Jan 28
Full
Feb 3
Last Quarter
Feb 10
New
Feb 17
First Quarter
Feb 25
Full

Hourly Weather History & Observations

Time (EST) Temp. Windchill Dew Point Humidity Pressure Visibility Wind Dir Wind Speed Gust Speed Precip Events Conditions
12:52 AM 5.0 °F - -0.0 °F 80% 30.46 in 10.0 mi Calm Calm - N/A   Clear
1:52 AM 6.1 °F - 1.9 °F 83% 30.47 in 8.0 mi Calm Calm - N/A   Clear
2:52 AM 7.0 °F - 1.9 °F 80% 30.46 in 9.0 mi Calm Calm - N/A   Overcast
3:52 AM 8.1 °F - 3.0 °F 80% 30.44 in 10.0 mi Calm Calm - N/A   Clear
4:52 AM 8.1 °F - 3.9 °F 83% 30.44 in 10.0 mi Calm Calm - N/A   Clear
5:52 AM 10.0 °F - 3.9 °F 76% 30.43 in 10.0 mi Calm Calm - N/A   Overcast
6:52 AM 10.9 °F - 5.0 °F 77% 30.43 in 10.0 mi Calm Calm - N/A   Overcast
7:52 AM 12.9 °F - 5.0 °F 71% 30.41 in 10.0 mi Calm Calm - N/A   Overcast
8:52 AM 15.1 °F - 6.1 °F 68% 30.41 in 10.0 mi Calm Calm - N/A   Overcast
9:52 AM 17.1 °F - 5.0 °F 59% 30.40 in 10.0 mi Calm Calm - N/A   Overcast
10:52 AM 19.0 °F - 7.0 °F 59% 30.37 in 10.0 mi Calm Calm - N/A   Overcast
11:52 AM 21.9 °F - 9.0 °F 58% 30.33 in 10.0 mi Calm Calm - N/A   Overcast
12:10 PM 21.2 °F 12.6 °F 8.6 °F 58% 30.28 in 2.5 mi South 6.9 mph - 0.00 in Snow Light Snow
12:15 PM 21.2 °F 13.6 °F 10.4 °F 63% 30.27 in 1.2 mi South 5.8 mph - 0.00 in Snow Light Snow
12:29 PM 21.2 °F 12.6 °F 15.8 °F 80% 30.26 in 1.0 mi SSE 6.9 mph - 0.00 in Snow Light Snow
12:38 PM 21.2 °F 14.9 °F 15.8 °F 80% 30.25 in 1.2 mi SSE 4.6 mph - 0.00 in Snow Light Snow
12:48 PM 21.2 °F 16.4 °F 17.6 °F 86% 30.24 in 0.8 mi SSE 3.5 mph - 0.00 in Snow Light Snow
12:49 PM 21.0 °F 16.2 °F 17.1 °F 85% 30.28 in 0.8 mi SSE 3.5 mph - 0.00 in Snow Light Snow
1:02 PM 21.2 °F 16.4 °F 17.6 °F 86% 30.23 in 0.5 mi SSE 3.5 mph - 0.01 in Fog , Snow Snow
1:25 PM 21.2 °F 13.6 °F 17.6 °F 86% 30.19 in 0.8 mi South 5.8 mph - 0.02 in Snow Light Snow
1:52 PM 21.9 °F 17.2 °F 19.0 °F 89% 30.20 in 0.5 mi South 3.5 mph - 0.03 in Fog , Snow Snow
2:15 PM 21.2 °F 16.4 °F 19.4 °F 93% 30.14 in 0.8 mi SSE 3.5 mph - 0.01 in Snow Light Snow
2:52 PM 23.0 °F - 19.9 °F 88% 30.15 in 0.8 mi Calm Calm - 0.02 in Snow Light Snow
3:11 PM 23.0 °F - 21.2 °F 93% 30.11 in 1.2 mi Calm Calm - 0.01 in Snow Light Snow
3:17 PM 23.0 °F - 19.4 °F 86% 30.11 in 2.0 mi Calm Calm - 0.01 in Snow Light Snow
3:32 PM 24.8 °F 19.1 °F 21.2 °F 86% 30.12 in 1.5 mi NNW 4.6 mph - 0.01 in Snow Light Snow
3:36 PM 24.8 °F 19.1 °F 21.2 °F 86% 30.13 in 1.0 mi NW 4.6 mph - 0.01 in Snow Light Snow
3:51 PM 23.0 °F - 21.0 °F 92% 30.16 in 0.5 mi Calm Calm - 0.03 in Fog , Snow Light Snow
4:22 PM 24.8 °F - 21.2 °F 86% 30.11 in 0.2 mi Calm Calm - 0.04 in Fog , Snow Snow
4:32 PM 23.0 °F - 21.2 °F 93% 30.10 in 0.2 mi Calm Calm - 0.05 in Fog , Snow Light Snow
4:52 PM 24.1 °F - 21.9 °F 91% 30.13 in 1.0 mi Calm Calm - 0.06 in Snow Light Snow
4:54 PM 24.8 °F - 21.2 °F 86% 30.10 in 1.2 mi Calm Calm - 0.00 in Snow Light Snow
5:01 PM 24.8 °F - 21.2 °F 86% 30.09 in 1.8 mi Calm Calm - 0.01 in Snow Light Snow
5:18 PM 23.0 °F - 21.2 °F 93% 30.08 in 2.5 mi Calm Calm - 0.01 in Snow Light Snow
5:25 PM 23.0 °F - 21.2 °F 93% 30.08 in 5.0 mi Calm Calm - 0.01 in   Overcast
5:52 PM 23.0 °F - 21.9 °F 96% 30.09 in 5.0 mi Calm Calm - 0.01 in   Overcast
6:10 PM 24.8 °F - 21.2 °F 86% 30.07 in 6.0 mi Calm Calm - N/A   Overcast
6:52 PM 24.1 °F 19.7 °F 21.0 °F 88% 30.09 in 7.0 mi NW 3.5 mph - N/A   Overcast
7:34 PM 24.8 °F - 21.2 °F 86% 30.05 in 3.0 mi Calm Calm - 0.00 in Rain Light Freezing Rain
7:49 PM 24.8 °F - 23.0 °F 93% 30.03 in 2.5 mi Calm Calm - 0.00 in Rain Light Freezing Rain
7:52 PM 25.0 °F - 23.0 °F 92% 30.06 in 2.5 mi Calm Calm - 0.00 in Rain Light Freezing Rain
8:36 PM 24.8 °F - 23.0 °F 93% 30.01 in 3.0 mi Calm Calm - 0.01 in   Overcast
8:52 PM 25.0 °F - 23.0 °F 92% 30.04 in 3.0 mi Calm Calm - 0.01 in   Overcast
9:52 PM 25.0 °F - 23.0 °F 92% 30.02 in 3.0 mi Calm Calm - 0.01 in Snow Light Snow
10:01 PM 24.8 °F - 23.0 °F 93% 29.99 in 2.0 mi Calm Calm - 0.00 in Snow Light Snow
10:13 PM 24.8 °F - 23.0 °F 93% 29.99 in 4.0 mi Calm Calm - 0.00 in Snow Light Snow
10:52 PM 25.0 °F - 23.0 °F 92% 30.02 in 5.0 mi Calm Calm - 0.01 in   Overcast
11:52 PM 25.0 °F - 21.9 °F 88% 30.01 in 7.0 mi Calm Calm - 0.00 in   Overcast